User: anonymous   Login
Location: Unspecified
(0.0000°N, 0.0000°E)
Time: 09:16:07
(UTC+00:00)
Language:

Envisat - Orbit

View from above orbital plane
View from above orbital plane
View from above satellite
View from above satellite

Ground track
Ground track

The orbit data is extracted from the following two-line orbital elements,

1 27386U 02009A   19108.65269510  .00000008  00000-0  16065-4 0  9990
2 27386  98.1546 132.7839 0001423  90.4666  17.9928 14.37946158897429
Epoch (UTC): 18 April 2019 15:39:52
Eccentricity: 0.0001423
inclination: 98.1546°
perigee height: 764 km
apogee height: 766 km
right ascension of ascending node: 132.7839°
argument of perigee: 90.4666°
revolutions per day: 14.37946158
mean anomaly at epoch: 17.9928°
orbit number at epoch: 89742

The dashed part of the orbit path shows where the satellite is in the earth's shadow,  

DLR